Regional Weather Roundup
Issued by NWS

Home | Current Version | Previous Version | Text Only | Print | Product List | Glossary Off
Versions: 1 2 3 4 5 6 7 8 9 10 11 12 13 14 15 16 17 18 19 20 21 22 23 24 25 26 27 28 29 30 31 32 33 34 35 36 37 38 39 40 41 42 43 44 45 46 47 48 49 50

000
ASUS43 KIND 301759
RWRIN

WEATHER ROUNDUP FOR INDIANA
NATIONAL WEATHER SERVICE INDIANAPOLIS IN
200 PM EDT SAT AUG 30 2014

NOTE: "FAIR" INDICATES FEW OR NO CLOUDS BELOW 12,000 FEET WITH NO
SIGNIFICANT WEATHER AND/OR OBSTRUCTIONS TO VISIBILITY.

* - STATION DOES NOT REPORT WEATHER SUCH AS PRECIPITATION OR FOG.

+ - STATION NOT QUALITY CONTROLLED BY THE NATIONAL WEATHER SERVICE.
    USE DATA WITH CAUTION...ESPECIALLY DEWPOINT AND RELATIVE
    HUMIDITY OBSERVATIONS.

INZ001>003-010>013-019-020-301900-
NORTHWEST INDIANA

CITY           SKY/WX    TMP DP  RH WIND       PRES   REMARKS
GARY /AIRPORT/ PTSUNNY   82  70  65 SW26      29.88F
KNOX *+        PTSUNNY   80  69  69 S14G21    29.90F
MONTICELLO +   PTSUNNY   81  71  72 SW13G21   29.93F
VALPARAISO     PTSUNNY   79  69  71 SW18G28   29.91S
6HR MIN TEMP:  72; 6HR MAX TEMP:  81;


$$

LMZ046-743>745-301900-
SOUTHERN LAKE MICHIGAN

STATION/POSITION TIME  TEMP WIND        PRES
                       AIR  DIR/SP/G
                 (UTC) (F)  (DEG/KT/KT) (MB)
MICHIGAN CITY    1700   77  180/ 16/ 22   N/A

$$

INZ004-005-014>016-021>024-301900-
NORTH CENTRAL INDIANA

CITY           SKY/WX    TMP DP  RH WIND       PRES   REMARKS
GOSHEN         MOSUNNY   85  69  58 SW18G30   29.92S
6HR MIN TEMP:  72; 6HR MAX TEMP:  85; 6HR PCP: TRACE;

SOUTH BEND     PTSUNNY   81  69  67 S18       29.90F
6HR MIN TEMP:  72; 6HR MAX TEMP:  83;


$$

INZ006>009-017-018-025>027-301900-
NORTHEAST INDIANA

CITY           SKY/WX    TMP DP  RH WIND       PRES   REMARKS
ANGOLA *+      MOSUNNY   84  70  61 SW13      29.93F
FORT WAYNE     PTSUNNY   81  69  67 SW16      29.97F
6HR MIN TEMP:  71; 6HR MAX TEMP:  81;


$$

INZ028-029-035-036-043>045-051>053-301900-
WEST CENTRAL INDIANA

CITY           SKY/WX    TMP DP  RH WIND       PRES   REMARKS
GREENCASTLE +  CLOUDY    73  70  88 S6        30.02S
LAFAYETTE      PTSUNNY   80  70  71 S14G24    29.95F
6HR MIN TEMP:  72; 6HR MAX TEMP:  81; 6HR PCP: TRACE;

TERRE HAUTE    LGT RAIN  78  70  76 S12       30.00F
6HR MIN TEMP:  73; 6HR MAX TEMP:  78; 6HR PCP:  0.01;


$$

INZ030>032-037>040-046>048-054>057-064-065-301900-
CENTRAL INDIANA

CITY           SKY/WX    TMP DP  RH WIND       PRES   REMARKS
ANDERSON       CLOUDY    75  68  78 S15       30.03S
COLUMBUS       MOSUNNY   73  73 100 S9        30.05F
FRANKFORT +    MOSUNNY   81  71  71 S10G20    29.99F
INDIANAPOLIS   CLOUDY    77  70  79 SW14      30.00F
6HR MIN TEMP:  71; 6HR MAX TEMP:  78; 6HR PCP:  0.02;

-EAGLE CREEK   CLOUDY    77  68  73 SW10      30.00F
6HR MIN TEMP:  72; 6HR MAX TEMP:  78; 6HR PCP: TRACE;

KOKOMO *+      MOSUNNY   81  70  69 SW20      29.97F
MT COMFORT *+  CLOUDY    77  75  94 S10       30.02F
SHELBYVILLE    CLOUDY    76  71  85 S17       30.03F
6HR MIN TEMP:  71; 6HR MAX TEMP:  77; 6HR PCP:  0.13;


$$

INZ033-034-041-042-049-050-058-059-301900-
EAST CENTRAL INDIANA

CITY           SKY/WX    TMP DP  RH WIND       PRES   REMARKS
MUNCIE         LGT RAIN  77  68  73 SW18G26   30.01S
6HR MIN TEMP:  72; 6HR MAX TEMP:  79; 6HR PCP: TRACE;


$$

INZ060-061-067>069-081>083-085>088-301900-
SOUTHWEST INDIANA

CITY           SKY/WX    TMP DP  RH WIND       PRES   REMARKS
EVANSVILLE     LGT RAIN  78  72  81 S5        30.04R
6HR MIN TEMP:  72; 6HR MAX TEMP:  80; 6HR PCP:  0.02;


$$

INZ062-063-066-070>080-084-089>092-301900-
SOUTH CENTRAL AND SOUTHEAST INDIANA

CITY           SKY/WX    TMP DP  RH WIND       PRES   REMARKS
BLOOMINGTON    CLOUDY    76  71  85 S8        30.03F
6HR MIN TEMP:  70; 6HR MAX TEMP:  76; 6HR PCP:  0.22;


$$



USA.gov is the U.S. government's official web portal to all federal, state and local government web resources and services.